• In Netherlands
  • List of Countries
  • For 7 days
  • Water Temperature
  • Satellite Maps
  • Weather Map
  • Weather Widgets
  • user-avatar
    Login

    Hourly Weather Mayrhofen

    Today, 28 July, Friday

    Time Temperature Precipitation Wind Pressure Humidity
    00:00 +9°C° 0.5 mm 1 mps 616 mmHg 91%
    01:00 +9°C° 0.5 mm 1 mps 616 mmHg 92%
    02:00 +9°C° 0.8 mm 1 mps 616 mmHg 92%
    03:00 +9°C° 0.8 mm 1 mps 616 mmHg 92%
    04:00 +9°C° 0.8 mm 1 mps 616 mmHg 92%
    05:00 +10°C° 0.2 mm 1 mps 617 mmHg 90%
    06:00 +11°C° 0.2 mm 1 mps 617 mmHg 88%
    07:00 +11°C° 0.2 mm 0 mps 618 mmHg 86%
    08:00 +13°C° 0.1 mm 1 mps 619 mmHg 81%
    09:00 +15°C° 0.1 mm 1 mps 619 mmHg 75%
    10:00 +16°C° 0.1 mm 1 mps 620 mmHg 70%
    11:00 +18°C° 0.3 mm 1 mps 620 mmHg 68%
    12:00 +18°C° 0.3 mm 1 mps 620 mmHg 67%
    13:00 +18°C° 0.3 mm 2 mps 621 mmHg 65%
    14:00 +18°C° 0.6 mm 2 mps 621 mmHg 68%
    15:00 +17°C° 0.6 mm 2 mps 620 mmHg 71%
    16:00 +17°C° 0.6 mm 2 mps 620 mmHg 74%
    17:00 +16°C° 0.3 mm 2 mps 620 mmHg 79%
    18:00 +15°C° 0.3 mm 2 mps 620 mmHg 85%
    19:00 +14°C° 0.3 mm 1 mps 620 mmHg 90%
    20:00 +13°C° 0.1 mm 1 mps 620 mmHg 92%
    21:00 +12°C° 0.1 mm 1 mps 620 mmHg 94%
    22:00 +11°C° 0.1 mm 1 mps 620 mmHg 97%
    23:00 +11°C° 0 mm 1 mps 620 mmHg 96%

    Tomorrow, 29 July, Saturday

    Time Temperature Precipitation Wind Pressure Humidity
    00:00 +10°C° 0 mm 1 mps 620 mmHg 96%
    01:00 +9°C° 0 mm 1 mps 620 mmHg 96%
    02:00 +9°C° 0 mm 1 mps 620 mmHg 96%
    03:00 +9°C° 0 mm 1 mps 619 mmHg 95%
    04:00 +9°C° 0 mm 1 mps 619 mmHg 95%
    05:00 +11°C° 0 mm 1 mps 620 mmHg 92%
    06:00 +12°C° 0 mm 1 mps 621 mmHg 89%
    07:00 +14°C° 0 mm 1 mps 622 mmHg 86%
    08:00 +16°C° 0 mm 1 mps 623 mmHg 79%
    09:00 +18°C° 0 mm 1 mps 623 mmHg 71%
    10:00 +20°C° 0 mm 1 mps 624 mmHg 64%
    11:00 +19°C° 0.3 mm 2 mps 624 mmHg 63%
    12:00 +20°C° 0.3 mm 2 mps 624 mmHg 62%
    13:00 +20°C° 0.3 mm 2 mps 624 mmHg 62%
    14:00 +20°C° 0.9 mm 2 mps 624 mmHg 63%
    15:00 +20°C° 0.9 mm 2 mps 623 mmHg 65%
    16:00 +21°C° 0.9 mm 1 mps 623 mmHg 67%
    17:00 +19°C° 1.5 mm 1 mps 623 mmHg 74%
    18:00 +18°C° 1.5 mm 1 mps 622 mmHg 81%
    19:00 +16°C° 1.5 mm 1 mps 622 mmHg 88%
    20:00 +15°C° 1.5 mm 1 mps 622 mmHg 90%
    21:00 +14°C° 1.5 mm 1 mps 622 mmHg 92%
    22:00 +13°C° 1.5 mm 1 mps 622 mmHg 95%
    23:00 +13°C° 0.7 mm 1 mps 622 mmHg 95%

    Day after tomorrow, 30 July, Sunday

    Time Temperature Precipitation Wind Pressure Humidity
    00:00 +13°C° 0.7 mm 1 mps 621 mmHg 95%
    01:00 +13°C° 0.7 mm 2 mps 621 mmHg 95%
    02:00 +13°C° 0.4 mm 2 mps 621 mmHg 95%
    03:00 +12°C° 0.4 mm 2 mps 621 mmHg 95%
    04:00 +12°C° 0.4 mm 2 mps 621 mmHg 95%
    05:00 +13°C° 0.2 mm 1 mps 621 mmHg 92%
    06:00 +14°C° 0.2 mm 1 mps 621 mmHg 90%
    07:00 +14°C° 0.2 mm 1 mps 621 mmHg 88%
    08:00 +18°C° 0.3 mm 1 mps 622 mmHg 77%
    09:00 +20°C° 0.3 mm 1 mps 623 mmHg 65%
    10:00 +22°C° 0.3 mm 1 mps 623 mmHg 54%
    11:00 +23°C° 0.8 mm 1 mps 623 mmHg 53%
    12:00 +23°C° 0.8 mm 1 mps 623 mmHg 52%
    13:00 +23°C° 0.8 mm 1 mps 623 mmHg 51%
    14:00 +22°C° 1.7 mm 1 mps 623 mmHg 58%
    15:00 +21°C° 1.7 mm 1 mps 622 mmHg 65%
    16:00 +20°C° 1.7 mm 1 mps 622 mmHg 71%
    17:00 +19°C° 1.6 mm 1 mps 622 mmHg 77%
    18:00 +18°C° 1.6 mm 1 mps 622 mmHg 83%
    19:00 +16°C° 1.6 mm 1 mps 621 mmHg 89%
    20:00 +15°C° 0.3 mm 1 mps 621 mmHg 90%
    21:00 +14°C° 0.3 mm 1 mps 621 mmHg 91%
    22:00 +13°C° 0.3 mm 1 mps 621 mmHg 91%
    23:00 +13°C° 0 mm 2 mps 621 mmHg 91%

    31 July, Monday

    Time Temperature Precipitation Wind Pressure Humidity
    00:00 +12°C° 0 mm 2 mps 621 mmHg 91%
    01:00 +12°C° 0 mm 2 mps 621 mmHg 91%
    02:00 +10°C° 0 mm 2 mps 621 mmHg 90%
    03:00 +10°C° 0 mm 2 mps 620 mmHg 90%
    04:00 +11°C° 0 mm 1 mps 620 mmHg 89%
    05:00 +12°C° 0 mm 1 mps 621 mmHg 85%
    06:00 +14°C° 0 mm 1 mps 622 mmHg 81%
    07:00 +15°C° 0 mm 1 mps 622 mmHg 77%
    08:00 +19°C° 0 mm 1 mps 623 mmHg 67%
    09:00 +21°C° 0 mm 1 mps 624 mmHg 56%
    10:00 +23°C° 0 mm 1 mps 625 mmHg 46%
    11:00 +24°C° 0 mm 1 mps 625 mmHg 45%
    12:00 +25°C° 0 mm 1 mps 625 mmHg 43%
    13:00 +25°C° 0 mm 2 mps 625 mmHg 41%
    14:00 +25°C° 0.2 mm 2 mps 625 mmHg 43%
    15:00 +25°C° 0.2 mm 2 mps 625 mmHg 44%
    16:00 +25°C° 0.2 mm 2 mps 624 mmHg 46%
    17:00 +23°C° 0.3 mm 2 mps 624 mmHg 56%
    18:00 +21°C° 0.3 mm 2 mps 623 mmHg 66%
    19:00 +20°C° 0.3 mm 1 mps 623 mmHg 76%
    20:00 +17°C° 0.3 mm 2 mps 622 mmHg 80%
    21:00 +16°C° 0.3 mm 2 mps 622 mmHg 84%
    22:00 +14°C° 0.3 mm 2 mps 622 mmHg 88%
    23:00 +14°C° 0 mm 2 mps 621 mmHg 88%

    1 August, Tuesday

    Time Temperature Precipitation Wind Pressure Humidity
    00:00 +14°C° 0 mm 2 mps 621 mmHg 88%
    01:00 +13°C° 0 mm 2 mps 621 mmHg 88%
    02:00 +13°C° 0 mm 2 mps 621 mmHg 87%
    03:00 +13°C° 0 mm 2 mps 621 mmHg 86%
    04:00 +12°C° 0 mm 2 mps 621 mmHg 85%
    05:00 +14°C° 0 mm 2 mps 622 mmHg 81%
    06:00 +15°C° 0 mm 2 mps 622 mmHg 77%
    07:00 +16°C° 0 mm 2 mps 623 mmHg 73%
    08:00 +20°C° 0 mm 1 mps 624 mmHg 62%
    09:00 +22°C° 0 mm 1 mps 625 mmHg 51%
    10:00 +24°C° 0 mm 1 mps 626 mmHg 40%
    11:00 +25°C° 0 mm 1 mps 626 mmHg 38%
    12:00 +26°C° 0 mm 1 mps 626 mmHg 36%
    13:00 +27°C° 0 mm 2 mps 626 mmHg 33%
    14:00 +26°C° 0 mm 2 mps 626 mmHg 36%
    15:00 +26°C° 0 mm 2 mps 626 mmHg 38%
    16:00 +26°C° 0 mm 2 mps 625 mmHg 40%
    17:00 +24°C° 1.1 mm 1 mps 625 mmHg 53%
    18:00 +22°C° 1.1 mm 1 mps 624 mmHg 65%
    19:00 +20°C° 1.1 mm 1 mps 624 mmHg 78%
    20:00 +18°C° 0.9 mm 1 mps 624 mmHg 80%
    21:00 +16°C° 0.9 mm 1 mps 624 mmHg 82%
    22:00 +15°C° 0.9 mm 1 mps 624 mmHg 83%
    23:00 +14°C° 0.5 mm 1 mps 623 mmHg 84%

    2 August, Wednesday

    Time Temperature Precipitation Wind Pressure Humidity
    00:00 +14°C° 0.5 mm 1 mps 623 mmHg 85%
    01:00 +13°C° 0.5 mm 1 mps 623 mmHg 86%
    02:00 +12°C° 0.1 mm 1 mps 623 mmHg 86%
    03:00 +12°C° 0.1 mm 1 mps 622 mmHg 85%
    04:00 +12°C° 0.1 mm 1 mps 622 mmHg 84%
    05:00 +13°C° 0 mm 1 mps 623 mmHg 80%
    06:00 +15°C° 0 mm 1 mps 624 mmHg 75%
    07:00 +18°C° 0 mm 1 mps 625 mmHg 71%
    08:00 +20°C° 0 mm 1 mps 626 mmHg 61%
    09:00 +23°C° 0 mm 1 mps 626 mmHg 52%
    10:00 +23°C° 0 mm 0 mps 627 mmHg 42%
    11:00 +26°C° 0.1 mm 1 mps 627 mmHg 40%
    12:00 +27°C° 0.1 mm 1 mps 627 mmHg 37%
    13:00 +27°C° 0.1 mm 1 mps 627 mmHg 35%
    14:00 +27°C° 0 mm 1 mps 627 mmHg 37%
    15:00 +27°C° 0 mm 1 mps 627 mmHg 39%
    16:00 +26°C° 0 mm 1 mps 626 mmHg 41%
    17:00 +24°C° 0.3 mm 1 mps 626 mmHg 52%
    18:00 +23°C° 0.3 mm 1 mps 625 mmHg 63%
    19:00 +21°C° 0.3 mm 1 mps 625 mmHg 74%
    20:00 +19°C° 0.1 mm 1 mps 624 mmHg 76%
    21:00 +18°C° 0.1 mm 1 mps 624 mmHg 77%
    22:00 +15°C° 0.1 mm 1 mps 624 mmHg 79%
    23:00 +15°C° 0 mm 1 mps 623 mmHg 78%
    Show more